GFA25 OBBI-ORBI

Flight info

Callsign GFA25
Flight time 1h 26m
Altitude 38000
Route BHR M444 DAVUS L602 TASMI UL602 LOVEK DCT BGD
Aircraft A20N/M-SDE2E3FGHIRWXY/LB1

Departure

Time 2026-05-04 18:09
Airport Bahrain International Airport (OBBI)

Arrival

Time 2026-05-04 19:35
Airport Baghdad International Airport / New Al Muthana Air Base (ORBI)
Time Latitude Longitude Altitude Speed Heading
2026-05-04 17:42 26.26890 50.62917 20 ft 0 kts 213°
2026-05-04 17:57 26.26891 50.62917 20 ft 1 kts 213°
2026-05-04 17:57 26.26910 50.62931 22 ft 4 kts 215°
2026-05-04 17:57 26.26932 50.62949 23 ft 4 kts 219°
2026-05-04 17:58 26.26952 50.62969 25 ft 4 kts 229°
2026-05-04 17:58 26.26966 50.62993 22 ft 4 kts 268°
2026-05-04 17:58 26.26964 50.63007 21 ft 1 kts 302°
2026-05-04 17:58 26.26963 50.63009 21 ft 0 kts 302°
2026-05-04 18:01 26.26964 50.63008 21 ft 1 kts 302°
2026-05-04 18:02 26.27026 50.62900 22 ft 16 kts 304°
2026-05-04 18:02 26.27116 50.62924 24 ft 17 kts 64°
2026-05-04 18:02 26.27062 50.63042 21 ft 19 kts 118°
2026-05-04 18:02 26.26983 50.63176 19 ft 23 kts 121°
2026-05-04 18:03 26.26894 50.63339 21 ft 25 kts 122°
2026-05-04 18:03 26.26793 50.63509 19 ft 28 kts 124°
2026-05-04 18:03 26.26687 50.63697 21 ft 29 kts 123°
2026-05-04 18:03 26.26579 50.63881 21 ft 27 kts 123°
2026-05-04 18:04 26.26471 50.64062 20 ft 29 kts 122°
2026-05-04 18:04 26.26363 50.64255 19 ft 31 kts 122°
2026-05-04 18:04 26.26116 50.64681 19 ft 34 kts 123°
2026-05-04 18:05 26.26017 50.64877 21 ft 10 kts 85°
2026-05-04 18:05 26.26041 50.64954 21 ft 0 kts 33°
2026-05-04 18:06 26.26106 50.65008 18 ft 11 kts 37°
2026-05-04 18:06 26.26142 50.65012 18 ft 2 kts 287°
2026-05-04 18:06 26.26151 50.64978 20 ft 8 kts 293°
2026-05-04 18:07 26.26195 50.64901 17 ft 15 kts 303°
2026-05-04 18:07 26.26258 50.64793 17 ft 15 kts 303°
2026-05-04 18:07 26.26269 50.64773 18 ft 0 kts 303°
2026-05-04 18:07 26.26271 50.64770 17 ft 2 kts 303°
2026-05-04 18:08 26.26287 50.64743 16 ft 6 kts 303°
2026-05-04 18:08 26.26360 50.64618 16 ft 47 kts 303°
2026-05-04 18:08 26.26657 50.64097 16 ft 109 kts 302°
2026-05-04 18:08 26.27157 50.63222 24 ft 155 kts 302°
2026-05-04 18:09 26.28221 50.61324 1179 ft 146 kts 306°
2026-05-04 18:09 26.29537 50.59188 1939 ft 176 kts 318°
2026-05-04 18:10 26.30586 50.58385 2269 ft 192 kts 340°
2026-05-04 18:10 26.31961 50.58164 2584 ft 214 kts
2026-05-04 18:10 26.33508 50.58441 2983 ft 236 kts
2026-05-04 18:10 26.35192 50.58770 3498 ft 254 kts
2026-05-04 18:11 26.36971 50.59117 4104 ft 262 kts
2026-05-04 18:11 26.38782 50.59223 5015 ft 261 kts 349°
2026-05-04 18:11 26.40545 50.58696 5889 ft 264 kts 342°
2026-05-04 18:11 26.42305 50.58093 6722 ft 266 kts 341°
2026-05-04 18:12 26.44083 50.57472 7568 ft 269 kts 341°
2026-05-04 18:12 26.45878 50.56850 8417 ft 271 kts 341°
2026-05-04 18:12 26.47695 50.56226 9279 ft 274 kts 341°
2026-05-04 18:12 26.49513 50.55605 10069 ft 278 kts 341°
2026-05-04 18:13 26.51414 50.54956 10515 ft 297 kts 341°
2026-05-04 18:13 26.53472 50.54254 10736 ft 321 kts 341°
2026-05-04 18:13 26.57903 50.52749 11955 ft 338 kts 342°
2026-05-04 18:14 26.60170 50.51980 12711 ft 342 kts 342°
2026-05-04 18:14 26.62454 50.51203 13458 ft 347 kts 342°
2026-05-04 18:14 26.64781 50.50410 14130 ft 352 kts 342°
2026-05-04 18:15 26.69452 50.48568 15444 ft 360 kts 332°
2026-05-04 18:15 26.73480 50.45196 16742 ft 367 kts 315°
2026-05-04 18:15 26.75341 50.43211 17402 ft 371 kts 315°
2026-05-04 18:16 26.77225 50.41216 18061 ft 375 kts 315°
2026-05-04 18:16 26.79109 50.39225 18651 ft 378 kts 315°
2026-05-04 18:16 26.81026 50.37200 19275 ft 380 kts 315°
2026-05-04 18:17 26.84899 50.33102 20481 ft 386 kts 314°
2026-05-04 18:17 26.86859 50.31023 21099 ft 388 kts 314°
2026-05-04 18:17 26.90797 50.26805 22271 ft 394 kts 313°
2026-05-04 18:18 26.92791 50.24679 22871 ft 397 kts 313°
2026-05-04 18:18 26.94802 50.22541 23434 ft 400 kts 313°
2026-05-04 18:18 26.96828 50.20391 23931 ft 402 kts 313°
2026-05-04 18:18 26.98871 50.18224 24448 ft 404 kts 313°
2026-05-04 18:19 27.02952 50.13892 25413 ft 408 kts 312°
2026-05-04 18:19 27.05051 50.11733 25868 ft 413 kts 316°
2026-05-04 18:19 27.07324 50.09738 26326 ft 416 kts 317°
2026-05-04 18:20 27.09616 50.07743 26769 ft 418 kts 317°
2026-05-04 18:20 27.11920 50.05730 27201 ft 421 kts 317°
2026-05-04 18:20 27.14235 50.03703 27636 ft 423 kts 316°
2026-05-04 18:20 27.16561 50.01664 28060 ft 425 kts 316°
2026-05-04 18:21 27.18904 49.99611 28478 ft 427 kts 316°
2026-05-04 18:21 27.21247 49.97556 28895 ft 429 kts 316°
2026-05-04 18:21 27.23611 49.95481 29286 ft 431 kts 316°
2026-05-04 18:21 27.25986 49.93395 29684 ft 433 kts 316°
2026-05-04 18:22 27.28340 49.91327 30043 ft 436 kts 315°
2026-05-04 18:22 27.30735 49.89220 30380 ft 437 kts 315°
2026-05-04 18:22 27.33137 49.87105 30721 ft 439 kts 315°
2026-05-04 18:22 27.35549 49.84978 31098 ft 440 kts 315°
2026-05-04 18:23 27.37956 49.82857 31544 ft 439 kts 315°
2026-05-04 18:23 27.40351 49.80746 31998 ft 437 kts 315°
2026-05-04 18:23 27.42745 49.78633 32447 ft 436 kts 314°
2026-05-04 18:23 27.44325 49.77238 32738 ft 435 kts 314°
2026-05-04 18:24 27.46702 49.75138 33169 ft 433 kts 314°
2026-05-04 18:24 27.49072 49.73043 33588 ft 432 kts 314°
2026-05-04 18:24 27.52193 49.70280 34075 ft 430 kts 313°
2026-05-04 18:24 27.53784 49.68871 34292 ft 430 kts 313°
2026-05-04 18:25 27.56106 49.66814 34589 ft 429 kts 313°
2026-05-04 18:25 27.58449 49.64736 34888 ft 428 kts 313°
2026-05-04 18:25 27.60792 49.62657 35174 ft 428 kts 313°
2026-05-04 18:25 27.63130 49.60582 35463 ft 427 kts 313°
2026-05-04 18:26 27.65467 49.58507 35747 ft 427 kts 313°
2026-05-04 18:26 27.67804 49.56430 36033 ft 426 kts 312°
2026-05-04 18:26 27.70127 49.54365 36287 ft 426 kts 312°
2026-05-04 18:26 27.72460 49.52289 36550 ft 426 kts 312°
2026-05-04 18:27 27.74788 49.50216 36798 ft 425 kts 312°
2026-05-04 18:27 27.77112 49.48145 37043 ft 425 kts 312°
2026-05-04 18:27 27.79432 49.46077 37273 ft 425 kts 311°
2026-05-04 18:27 27.81725 49.44032 37496 ft 425 kts 311°
2026-05-04 18:28 27.84048 49.41959 37710 ft 425 kts 311°
2026-05-04 18:28 27.86368 49.39887 37797 ft 425 kts 311°
2026-05-04 18:28 27.90993 49.35755 37800 ft 423 kts 311°
2026-05-04 18:29 27.95916 49.31957 37797 ft 436 kts 320°
2026-05-04 18:29 28.01455 49.29013 37796 ft 446 kts 326°
2026-05-04 18:30 28.10023 49.24920 37797 ft 445 kts 326°
2026-05-04 18:31 28.15740 49.22180 37796 ft 445 kts 326°
2026-05-04 18:31 28.21451 49.19444 37796 ft 446 kts 326°
2026-05-04 18:32 28.27161 49.16699 37795 ft 445 kts 326°
2026-05-04 18:32 28.32860 49.13925 37795 ft 445 kts 326°
2026-05-04 18:33 28.38519 49.11087 37792 ft 440 kts 322°
2026-05-04 18:33 28.43671 49.07524 37788 ft 429 kts 315°
2026-05-04 18:34 28.48631 49.03716 37790 ft 430 kts 315°
2026-05-04 18:34 28.53598 48.99916 37787 ft 430 kts 315°
2026-05-04 18:35 28.58566 48.96103 37783 ft 431 kts 315°
2026-05-04 18:35 28.63502 48.92307 37786 ft 431 kts 315°
2026-05-04 18:36 28.68475 48.88479 37786 ft 432 kts 315°
2026-05-04 18:36 28.73453 48.84642 37770 ft 432 kts 315°
2026-05-04 18:37 28.78435 48.80798 37777 ft 432 kts 315°
2026-05-04 18:37 28.83429 48.76951 37772 ft 433 kts 315°
2026-05-04 18:38 28.88442 48.73117 37779 ft 434 kts 315°
2026-05-04 18:38 28.93460 48.69274 37783 ft 434 kts 315°
2026-05-04 18:39 28.98477 48.65422 37784 ft 435 kts 315°
2026-05-04 18:39 29.03505 48.61557 37786 ft 435 kts 315°
2026-05-04 18:40 29.08532 48.57689 37789 ft 435 kts 314°
2026-05-04 18:40 29.13553 48.53819 37793 ft 435 kts 314°
2026-05-04 18:41 29.18573 48.49947 37789 ft 435 kts 314°
2026-05-04 18:41 29.23586 48.46075 37791 ft 435 kts 314°
2026-05-04 18:42 29.28565 48.42224 37783 ft 434 kts 314°
2026-05-04 18:42 29.33565 48.38353 37781 ft 433 kts 314°
2026-05-04 18:43 29.38562 48.34479 37777 ft 433 kts 314°
2026-05-04 18:43 29.43555 48.30624 37774 ft 435 kts 316°
2026-05-04 18:44 29.48841 48.27120 37771 ft 438 kts 319°
2026-05-04 18:44 29.54132 48.23641 37761 ft 438 kts 318°
2026-05-04 18:45 29.59416 48.20160 37757 ft 437 kts 318°
2026-05-04 18:45 29.64657 48.16704 37761 ft 437 kts 318°
2026-05-04 18:46 29.69934 48.13220 37756 ft 437 kts 318°
2026-05-04 18:46 29.75211 48.09732 37756 ft 438 kts 318°
2026-05-04 18:47 29.80509 48.06226 37757 ft 438 kts 319°
2026-05-04 18:47 29.85762 48.02746 37756 ft 438 kts 319°
2026-05-04 18:48 29.91058 47.99232 37758 ft 439 kts 319°
2026-05-04 18:48 29.96358 47.95712 37759 ft 440 kts 319°
2026-05-04 18:49 30.01359 47.91832 37757 ft 427 kts 310°
2026-05-04 18:49 30.05640 47.87225 37760 ft 415 kts 301°
2026-05-04 18:50 30.09413 47.82210 37762 ft 414 kts 300°
2026-05-04 18:50 30.13200 47.77180 37769 ft 415 kts 300°
2026-05-04 18:51 30.16965 47.72165 37771 ft 416 kts 300°
2026-05-04 18:51 30.20756 47.67101 37771 ft 416 kts 300°
2026-05-04 18:52 30.24543 47.62035 37774 ft 417 kts 300°
2026-05-04 18:52 30.28331 47.56959 37783 ft 417 kts 300°
2026-05-04 18:53 30.32109 47.51893 37774 ft 414 kts 300°
2026-05-04 18:53 30.35873 47.46836 37774 ft 414 kts 300°
2026-05-04 18:54 30.39627 47.41784 37773 ft 414 kts 300°
2026-05-04 18:54 30.43347 47.36774 37776 ft 413 kts 300°
2026-05-04 18:55 30.47098 47.31716 37777 ft 413 kts 300°
2026-05-04 18:55 30.52717 47.24125 37784 ft 413 kts 300°
2026-05-04 18:56 30.56458 47.19064 37783 ft 412 kts 300°
2026-05-04 18:56 30.60189 47.14010 37777 ft 412 kts 300°
2026-05-04 18:57 30.63889 47.08991 37780 ft 411 kts 300°
2026-05-04 18:57 30.67608 47.03940 37788 ft 411 kts 300°
2026-05-04 18:58 30.71318 46.98895 37786 ft 410 kts 300°
2026-05-04 18:58 30.75023 46.93851 37782 ft 410 kts 300°
2026-05-04 18:59 30.78717 46.88815 37784 ft 409 kts 300°
2026-05-04 18:59 30.82409 46.83774 37783 ft 408 kts 300°
2026-05-04 19:00 30.86087 46.78748 37783 ft 408 kts 299°
2026-05-04 19:00 30.89763 46.73717 37785 ft 407 kts 299°
2026-05-04 19:01 30.93427 46.68695 37784 ft 406 kts 299°
2026-05-04 19:01 30.97061 46.63708 37784 ft 405 kts 299°
2026-05-04 19:02 31.00713 46.58689 37782 ft 405 kts 299°
2026-05-04 19:02 31.04353 46.53680 37790 ft 404 kts 299°
2026-05-04 19:03 31.07992 46.48669 37781 ft 403 kts 299°
2026-05-04 19:03 31.11592 46.43702 37789 ft 403 kts 299°
2026-05-04 19:04 31.15211 46.38703 37782 ft 402 kts 299°
2026-05-04 19:04 31.18822 46.33708 37781 ft 402 kts 299°
2026-05-04 19:05 31.22430 46.28713 37783 ft 402 kts 298°
2026-05-04 19:05 31.26031 46.23718 37790 ft 401 kts 298°
2026-05-04 19:06 31.29628 46.18724 37792 ft 401 kts 298°
2026-05-04 19:06 31.33205 46.13752 37789 ft 401 kts 298°
2026-05-04 19:07 31.36798 46.08750 37792 ft 401 kts 298°
2026-05-04 19:07 31.40396 46.03733 37520 ft 402 kts 298°
2026-05-04 19:08 31.42195 46.01221 37271 ft 403 kts 299°
2026-05-04 19:08 31.43995 45.98708 37013 ft 403 kts 299°
2026-05-04 19:08 31.45800 45.96184 36760 ft 405 kts 299°
2026-05-04 19:08 31.47611 45.93652 36518 ft 406 kts 299°
2026-05-04 19:09 31.48810 45.91974 36346 ft 406 kts 300°
2026-05-04 19:09 31.50629 45.89429 36099 ft 407 kts 300°
2026-05-04 19:09 31.52452 45.86874 35878 ft 408 kts 300°
2026-05-04 19:09 31.54277 45.84316 35635 ft 409 kts 300°
2026-05-04 19:10 31.56105 45.81751 35395 ft 410 kts 300°
2026-05-04 19:10 31.57319 45.80046 35239 ft 411 kts 300°
2026-05-04 19:10 31.59772 45.76600 34930 ft 412 kts 301°
2026-05-04 19:10 31.61608 45.74018 34701 ft 413 kts 301°
2026-05-04 19:11 31.63449 45.71427 34468 ft 414 kts 301°
2026-05-04 19:11 31.65276 45.68855 34249 ft 415 kts 301°
2026-05-04 19:11 31.67131 45.66242 34019 ft 417 kts 301°
2026-05-04 19:11 31.68992 45.63618 33782 ft 418 kts 302°
2026-05-04 19:12 31.70852 45.60995 33526 ft 419 kts 302°
2026-05-04 19:12 31.74603 45.55700 33012 ft 423 kts 302°
2026-05-04 19:12 31.76486 45.53039 32748 ft 424 kts 302°
2026-05-04 19:13 31.78379 45.50364 32497 ft 426 kts 302°
2026-05-04 19:13 31.80277 45.47678 32246 ft 427 kts 302°
2026-05-04 19:13 31.82179 45.44986 31987 ft 429 kts 302°
2026-05-04 19:13 31.84088 45.42280 31745 ft 430 kts 302°
2026-05-04 19:14 31.86002 45.39565 31494 ft 432 kts 302°
2026-05-04 19:14 31.87923 45.36841 31250 ft 433 kts 302°
2026-05-04 19:14 31.89850 45.34104 30908 ft 434 kts 302°
2026-05-04 19:14 31.91753 45.31399 30275 ft 436 kts 303°
2026-05-04 19:15 31.93686 45.28652 29590 ft 434 kts 303°
2026-05-04 19:15 31.95595 45.25941 29036 ft 427 kts 303°
2026-05-04 19:15 31.97477 45.23267 28449 ft 421 kts 303°
2026-05-04 19:15 31.99165 45.20864 27919 ft 416 kts 303°
2026-05-04 19:16 32.00355 45.19170 27545 ft 413 kts 302°
2026-05-04 19:16 32.02174 45.16573 26964 ft 408 kts 302°
2026-05-04 19:16 32.03977 45.13999 26397 ft 404 kts 302°
2026-05-04 19:16 32.05761 45.11450 25828 ft 400 kts 302°
2026-05-04 19:17 32.07530 45.08927 25245 ft 398 kts 303°
2026-05-04 19:17 32.09604 45.06660 24254 ft 418 kts 317°
2026-05-04 19:17 32.12072 45.04803 23186 ft 432 kts 322°
2026-05-04 19:17 32.14683 45.03021 22397 ft 432 kts 323°
2026-05-04 19:18 32.17270 45.01284 21926 ft 422 kts 323°
2026-05-04 19:18 32.19788 44.99577 21474 ft 413 kts 322°
2026-05-04 19:18 32.22251 44.97878 20899 ft 408 kts 322°
2026-05-04 19:18 32.24679 44.96185 20339 ft 403 kts 321°
2026-05-04 19:19 32.27081 44.94501 19763 ft 399 kts 321°
2026-05-04 19:19 32.29459 44.92829 19201 ft 395 kts 321°
2026-05-04 19:19 32.31817 44.91170 18628 ft 393 kts 321°
2026-05-04 19:19 32.34161 44.89520 18030 ft 391 kts 321°
2026-05-04 19:20 32.36489 44.87882 17487 ft 386 kts 321°
2026-05-04 19:20 32.38753 44.86289 16941 ft 381 kts 321°
2026-05-04 19:20 32.41050 44.84671 16389 ft 377 kts 321°
2026-05-04 19:20 32.43266 44.83109 15866 ft 374 kts 321°
2026-05-04 19:21 32.45494 44.81536 15333 ft 371 kts 321°
2026-05-04 19:21 32.47703 44.79975 14805 ft 369 kts 321°
2026-05-04 19:21 32.49931 44.78401 14279 ft 367 kts 321°
2026-05-04 19:21 32.52094 44.76872 13737 ft 366 kts 321°
2026-05-04 19:22 32.54270 44.75332 13208 ft 363 kts 321°
2026-05-04 19:22 32.56433 44.73801 12693 ft 360 kts 321°
2026-05-04 19:22 32.58571 44.72286 12190 ft 357 kts 321°
2026-05-04 19:22 32.60699 44.70778 11679 ft 355 kts 322°
2026-05-04 19:23 32.62816 44.69276 11173 ft 352 kts 322°
2026-05-04 19:23 32.64914 44.67786 10668 ft 350 kts 322°
2026-05-04 19:23 32.67000 44.66305 10214 ft 347 kts 323°
2026-05-04 19:23 32.69038 44.64862 10070 ft 334 kts 323°
2026-05-04 19:24 32.70992 44.63481 9951 ft 320 kts 322°
2026-05-04 19:24 32.72872 44.62149 9690 ft 312 kts 322°
2026-05-04 19:24 32.74043 44.61315 9510 ft 308 kts 322°
2026-05-04 19:24 32.75846 44.60033 9351 ft 299 kts 322°
2026-05-04 19:25 32.77637 44.58755 8985 ft 301 kts 322°
2026-05-04 19:25 32.79432 44.57471 8594 ft 300 kts 322°
2026-05-04 19:25 32.81210 44.56202 8217 ft 297 kts 323°
2026-05-04 19:25 32.82962 44.54950 7828 ft 296 kts 323°
2026-05-04 19:26 32.84720 44.53695 7447 ft 294 kts 324°
2026-05-04 19:26 32.86467 44.52447 7063 ft 292 kts 324°
2026-05-04 19:26 32.88205 44.51206 6679 ft 290 kts 325°
2026-05-04 19:26 32.89931 44.49972 6285 ft 289 kts 325°
2026-05-04 19:27 32.91651 44.48742 5882 ft 287 kts 326°
2026-05-04 19:27 32.93361 44.47520 5499 ft 285 kts 326°
2026-05-04 19:27 32.95054 44.46311 5179 ft 280 kts 326°
2026-05-04 19:27 32.96706 44.45132 4885 ft 275 kts 326°
2026-05-04 19:28 32.98335 44.43966 4543 ft 271 kts 326°
2026-05-04 19:28 32.99848 44.42854 4430 ft 266 kts 327°
2026-05-04 19:28 33.01464 44.41723 4316 ft 271 kts 328°
2026-05-04 19:28 33.03075 44.40609 4194 ft 263 kts 328°
2026-05-04 19:29 33.04613 44.39547 4077 ft 252 kts 328°
2026-05-04 19:29 33.06071 44.38538 3968 ft 239 kts 328°
2026-05-04 19:29 33.07471 44.37571 3856 ft 226 kts 328°
2026-05-04 19:29 33.08790 44.36658 3655 ft 214 kts 329°
2026-05-04 19:30 33.10025 44.35806 3462 ft 197 kts 329°
2026-05-04 19:30 33.11170 44.35015 3223 ft 184 kts 330°
2026-05-04 19:30 33.12254 44.34266 2996 ft 177 kts 330°
2026-05-04 19:30 33.13286 44.33550 2776 ft 179 kts 331°
2026-05-04 19:31 33.14369 44.32803 2550 ft 175 kts 330°
2026-05-04 19:31 33.15367 44.32113 2333 ft 157 kts 330°
2026-05-04 19:31 33.16268 44.31490 2141 ft 143 kts 331°
2026-05-04 19:31 33.17075 44.30933 1965 ft 128 kts 332°
2026-05-04 19:32 33.17844 44.30402 1812 ft 128 kts 332°
2026-05-04 19:32 33.18605 44.29876 1663 ft 124 kts 332°
2026-05-04 19:32 33.19343 44.29340 1471 ft 125 kts 332°
2026-05-04 19:32 33.20096 44.28820 1278 ft 125 kts 332°
2026-05-04 19:33 33.20861 44.28297 1077 ft 127 kts 331°
2026-05-04 19:33 33.21621 44.27777 930 ft 126 kts 333°
2026-05-04 19:33 33.22356 44.27266 776 ft 124 kts 331°
2026-05-04 19:33 33.23064 44.26788 637 ft 125 kts 332°
2026-05-04 19:34 33.23817 44.26261 478 ft 127 kts 331°
2026-05-04 19:34 33.24581 44.25723 383 ft 131 kts 330°
2026-05-04 19:34 33.25352 44.25182 199 ft 124 kts 333°
2026-05-04 19:34 33.25882 44.24838 141 ft 100 kts 332°
2026-05-04 19:35 33.26364 44.24511 139 ft 65 kts 332°
2026-05-04 19:35 33.26661 44.24291 139 ft 37 kts 336°
2026-05-04 19:35 33.26840 44.24179 141 ft 30 kts 330°
2026-05-04 19:35 33.27021 44.24055 140 ft 30 kts 330°
2026-05-04 19:36 33.27185 44.23934 138 ft 22 kts 316°
2026-05-04 19:36 33.27284 44.23818 137 ft 10 kts 314°
2026-05-04 19:36 33.27350 44.23728 138 ft 18 kts 301°
2026-05-04 19:36 33.27401 44.23587 139 ft 20 kts 276°
2026-05-04 19:37 33.27340 44.23434 139 ft 22 kts 240°
2026-05-04 19:37 33.27296 44.23341 139 ft 24 kts 241°
2026-05-04 19:37 33.27239 44.23229 139 ft 25 kts 236°
2026-05-04 19:37 33.27148 44.23039 139 ft 28 kts 241°
2026-05-04 19:38 33.27074 44.22879 139 ft 17 kts 240°
2026-05-04 19:38 33.27039 44.22810 139 ft 9 kts 238°
2026-05-04 19:38 33.26999 44.22733 139 ft 13 kts 239°
2026-05-04 19:38 33.26990 44.22715 139 ft 2 kts 237°
2026-05-04 19:39 33.26967 44.22700 139 ft 4 kts 175°
2026-05-04 19:39 33.26956 44.22717 139 ft 1 kts 115°
2026-05-04 19:39 33.26941 44.22737 139 ft 0 kts 140°
2026-05-04 19:39 33.26929 44.22748 139 ft 5 kts 145°
2026-05-04 19:40 33.26903 44.22770 139 ft 5 kts 142°
2026-05-04 19:40 33.26896 44.22777 139 ft 2 kts 141°
2026-05-04 19:40 33.26889 44.22783 139 ft 1 kts 140°
2026-05-04 19:40 33.26887 44.22786 139 ft 0 kts 140°